User: anonymous   Login
Location: Unspecified
(0.0000°N, 0.0000°E)
Time: 17:37:50
(UTC+00:00)
Language:

HO-68 - Orbit

View from above orbital plane
View from above orbital plane
View from above satellite
View from above satellite

Ground track
Ground track

The orbit data is extracted from the following two-line orbital elements,

1 36122U 09072B   16145.11668748 -.00000059  00000-0 -43517-4 0  9990
2 36122 100.1462 181.9476 0008099  55.6679 304.5206 13.16334177309446
Epoch (UTC): 24 May 2016 02:48:01
Eccentricity: 0.0008099
inclination: 100.1462°
perigee height: 1192 km
apogee height: 1205 km
right ascension of ascending node: 181.9476°
argument of perigee: 55.6679°
revolutions per day: 13.16334177
mean anomaly at epoch: 304.5206°
orbit number at epoch: 30944

The dashed part of the orbit path shows where the satellite is in the earth's shadow,  

DLR